Regional Weather Roundup
Issued by NWS Sterling, VA

Home | Current Version | Previous Version | Graphics & Text | Print | Product List | Glossary On
Versions: 1 2 3 4 5 6 7 8 9 10 11 12 13 14 15 16 17 18 19 20 21 22 23 24 25 26 27
000
ASUS41 KLWX 051510
RWRLWX

REGIONAL WEATHER ROUNDUP
NATIONAL WEATHER SERVICE BALTIMORE MD/WASHINGTON DC
1100 AM EDT THU MAY 05 2016

Note: "FAIR" indicates few or no clouds below 12,000 feet
with no significant weather and/or obstructions to visibility.
 TC=TEMPERATURE CELSIUS

 * =Non NWS site. Station does not report precipitation (e.g. rain,
    snow, etc.), thunder, or fog.

DCZ001-MDZ009-015-VAZ040>042-051-053>054-051600-
WASHINGTON METRO

CITY           SKY/WX    TMP DP  RH WIND       PRES   REMARKS
WASHINGTON NAT DRIZZLE   52  50  93 NE12      29.68S FOG
DULLES         DRIZZLE   52  48  86 N10       29.68S FOG
ANDREWS AFB    DRIZZLE   50  48  93 NE7       29.67R FOG
FT BELVOIR     CLOUDY    51  49  92 CALM      29.68R FOG
QUANTICO       CLOUDY    54  49  83 E13       29.68R
COLLEGE PARK*  CLOUDY    50  46  87 N9        29.68S
LEESBURG*      CLOUDY    54  52  94 NE7       29.69S
MANASSAS*      PTSUNNY   52  52 100 MISG      29.68R FOG
GAITHERSBURG*  CLOUDY    52  46  82 NE3       29.72R

$$

MDZ006>007-011-014-051600-
BALTIMORE METRO

CITY           SKY/WX    TMP DP  RH WIND       PRES   REMARKS
BWI AIRPORT    CLOUDY    51  47  86 NE12      29.68S FOG
MD SCIENCE CTR   N/A     52  46  80 MISG      29.70S
MARTIN STATE   CLOUDY    54  48  82 NE6       29.70S
ANNAPOLIS        N/A     52  47  83 NE9G18    29.68S
FORT MEADE*    CLOUDY    50  46  87 NE5       29.70S

$$

MDZ012-015-019>023-051600-
MARYLAND EASTERN SHORE

CITY           SKY/WX    TMP DP  RH WIND       PRES   REMARKS
OCEAN CITY     CLOUDY    50  46  86 NE14G22   29.64F
SALISBURY      CLOUDY    50  47  89 NE12      29.65S
CAMBRIDGE*     CLOUDY    50  45  81 NE10      29.66S
EASTON*        CLOUDY   N/A N/A N/A NE13      29.71S

$$

MDZ017>025-051600-
SOUTHERN MARYLAND

CITY           SKY/WX    TMP DP  RH WIND       PRES   REMARKS
PATUXENT RIVER CLOUDY    52  46  80 NE13      29.66S
ST INIGOES     CLOUDY    52  47  83 N9        29.65R
LEONARDTOWN*   CLOUDY    50  45  81 CALM      29.67S

$$

MDZ003>005-051600-
NORTH CENTRAL MARYLAND

CITY           SKY/WX    TMP DP  RH WIND       PRES   REMARKS
FREDERICK*     CLOUDY    52  52 100 NE7       29.72S FOG
HAGERSTOWN APT CLOUDY    53  45  74 N7        29.69S
WESTMINSTER*   CLOUDY    48  39  71 NE7       29.69S HAZE

$$

MDZ501>502-051600-
WESTERN MARYLAND

CITY           SKY/WX    TMP DP  RH WIND       PRES   REMARKS
OAKLAND*       FOG       43  43 100 N5        29.68R VSB<1/4
CUMBERLAND*    CLOUDY    54  48  82 NE6       29.73S

$$

VAZ025>031-051600-
SHENANDOAH VALLEY

CITY           SKY/WX    TMP DP  RH WIND       PRES   REMARKS
WINCHESTER*    CLOUDY    50  48  93 N5        29.69R FOG
FRONT ROYAL*   CLOUDY    50  48  93 NE7       29.67S
LURAY*         DRIZZLE   50  50 100 N10       29.66S
NEW MARKET*    CLOUDY    49  48  95 N9        29.66S
STAUNTON*      LGT RAIN  52  52 100 N13       29.66S
WAYNESBORO*    CLOUDY    49  47  93 NE6       29.64S

$$

WVZ021-048>050-054>055-051600-
EASTERN WEST VIRGINIA PANHANDLE

CITY           SKY/WX    TMP DP  RH WIND       PRES   REMARKS
MARTINSBURG    CLOUDY    53  47  79 NE9       29.68S
PETERSBURG*    RAIN      52  50  92 NW3       29.69S

$$

VAZ036>039-050-051600-
CENTRAL FOOTHILLS

CITY           SKY/WX    TMP DP  RH WIND       PRES   REMARKS
CHARLOTTESVILL RAIN      51  48  89 NE10      29.65S FOG
CULPEPER*      CLOUDY    52  50  93 NE3       29.68S
ORANGE*        LGT RAIN  52  52 100 CALM      29.68S
GORDONSVILLE*  CLOUDY    50  50  99 N6        29.65S FOG
WARRENTON*     RAIN      52  47  81 NE6       29.67S

$$

VAZ055>057-051600-
NORTH AND CENTRAL PIEDMONT

CITY           SKY/WX    TMP DP  RH WIND       PRES   REMARKS
FREDERICKSBRG* DRIZZLE   54  54 100 NE6       29.66S
STAFFORD*      CLOUDY    52  49  90 NE9       29.70S FOG

$$

NCZ024-NYZ072-PAZ021-071-VAZ022-071-051600-
OTHER REGIONAL OBSERVATIONS

CITY           SKY/WX    TMP DP  RH WIND       PRES   REMARKS
NEW YORK CITY  CLOUDY    51  41  68 VRB7      29.73S
PHILADELPHIA   CLOUDY    53  43  68 NE13      29.69S
PITTSBURGH     PTSUNNY   55  48  77 N9        29.71S
ROANOKE        LGT RAIN  48  45  89 W12       29.67S
RICHMOND       CLOUDY    52  50  93 NE12      29.63S FOG
RALEIGH        PTSUNNY   58  53  84 N9        29.57R THUNDER

$$

ANZ530>537-051600-
MARINE OBSERVATIONS

STATION/POSITION TIME  TEMP    WIND        PRES
                       AIR SEA DIR/SP/G
                 (UTC) (F)     (DEG/KT/KT) (MB)
THOMAS PT LIGHT  1500   50 58   30/ 12/ 14 1006.1F
BALT KEY BRIDGE  1400   51      20/ 11/ 13 1005.2R
COVE POINT       1400   50      70/ 13/ 15 1004.8F
LEWISETTA        1400   52 62   60/  9/ 13 1003.6F
SOLOMONS ISLAND  1400   51 60   40/  9/ 13   N/A
PINEY POINT      1400           60/ 10/ 13   N/A

$$





USA.gov is the U.S. government's official web portal to all federal, state and local government web resources and services.